Location: Newark
(46.1292°N, 1.0086°W)
Time: 23:19:39
(UTC+00:00)

Transit 4A - Pass Details

Date: 21 November 2019
Orbit: 870 x 975 km, 66.8° (Epoch: 08 December)

Event Time Altitude Azimuth Distance (km) Brightness Sun altitude
Exits shadow 03:53:32 15° 7° (N) 2,248 10.0 -34.1°
Maximum altitude 03:55:18 16° 27° (NNE) 2,133 10.1 -33.8°
Drops below altitude 10° 03:58:55 10° 66° (ENE) 2,542 10.9 -33.2°
Sets 04:02:24 0° 87° (E) 3,466 12.0 -32.6°
